Time,TemperatureF,DewpointF,PressureIn,WindDirection,WindDirectionDegrees,WindSpeedMPH,WindSpeedGustMPH,Humidity,HourlyPrecipIn,Conditions,Clouds,dailyrainin,SoftwareType,DateUTC
2013-03-26 00:05:00,38.1,28.0,30.26,NW,307,0.0,0.0,66,0.00,,,0.00,weatherlink.com 1.10,2013-03-26 05:05:00,
2013-03-26 00:21:00,38.5,27.0,30.27,NNW,334,0.0,4.0,64,0.00,,,0.00,weatherlink.com 1.10,2013-03-26 05:21:00,
2013-03-26 00:36:00,39.0,28.0,30.27,NW,318,0.0,2.0,64,0.00,,,0.00,weatherlink.com 1.10,2013-03-26 05:36:00,
2013-03-26 00:51:00,38.7,27.0,30.26,NW,316,0.0,1.0,64,0.00,,,0.00,weatherlink.com 1.10,2013-03-26 05:51:00,
2013-03-26 01:06:00,38.5,28.0,30.27,NW,306,0.0,2.0,65,0.00,,,0.00,weatherlink.com 1.10,2013-03-26 06:06:00,
2013-03-26 01:36:00,37.1,28.0,30.27,NNW,337,0.0,1.0,70,0.00,,,0.00,weatherlink.com 1.10,2013-03-26 06:36:00,
2013-03-26 02:06:00,36.7,28.0,30.28,ENE,73,0.0,4.0,70,0.00,,,0.00,weatherlink.com 1.10,2013-03-26 07:06:00,
2013-03-26 02:21:00,36.7,28.0,30.28,NNW,337,0.0,2.0,70,0.00,,,0.00,weatherlink.com 1.10,2013-03-26 07:21:00,
2013-03-26 02:36:00,36.2,28.0,30.29,East,82,0.0,1.0,71,0.00,,,0.00,weatherlink.com 1.10,2013-03-26 07:36:00,
2013-03-26 02:51:00,35.5,27.0,30.29,NW,321,0.0,0.0,72,0.00,,,0.00,weatherlink.com 1.10,2013-03-26 07:51:00,
2013-03-26 03:06:00,34.9,27.0,30.29,WNW,288,0.0,1.0,74,0.00,,,0.00,weatherlink.com 1.10,2013-03-26 08:06:00,
2013-03-26 03:21:00,34.6,27.0,30.30,WNW,288,0.0,0.0,75,0.00,,,0.00,weatherlink.com 1.10,2013-03-26 08:21:00,
2013-03-26 03:36:00,33.8,27.0,30.30,WNW,288,0.0,0.0,76,0.00,,,0.00,weatherlink.com 1.10,2013-03-26 08:36:00,
2013-03-26 03:51:00,33.1,27.0,30.30,WNW,288,0.0,0.0,79,0.00,,,0.00,weatherlink.com 1.10,2013-03-26 08:51:00,
2013-03-26 04:06:00,32.3,27.0,30.30,WNW,288,0.0,0.0,80,0.00,,,0.00,weatherlink.com 1.10,2013-03-26 09:06:00,
2013-03-26 04:21:00,32.0,27.0,30.30,WNW,288,0.0,0.0,81,0.00,,,0.00,weatherlink.com 1.10,2013-03-26 09:21:00,
2013-03-26 04:36:00,31.6,27.0,30.30,WNW,288,0.0,0.0,83,0.00,,,0.00,weatherlink.com 1.10,2013-03-26 09:36:00,
2013-03-26 04:51:00,31.0,27.0,30.30,WNW,288,0.0,0.0,84,0.00,,,0.00,weatherlink.com 1.10,2013-03-26 09:51:00,
2013-03-26 05:06:00,30.6,27.0,30.30,WNW,288,0.0,0.0,85,0.00,,,0.00,weatherlink.com 1.10,2013-03-26 10:06:00,
2013-03-26 05:21:00,30.3,26.0,30.30,WNW,288,0.0,0.0,85,0.00,,,0.00,weatherlink.com 1.10,2013-03-26 10:21:00,
2013-03-26 05:36:00,30.5,26.0,30.30,WNW,288,0.0,0.0,84,0.00,,,0.00,weatherlink.com 1.10,2013-03-26 10:36:00,
2013-03-26 05:51:00,30.5,26.0,30.31,WNW,288,0.0,0.0,83,0.00,,,0.00,weatherlink.com 1.10,2013-03-26 10:51:00,
2013-03-26 06:06:00,30.8,25.0,30.31,WNW,288,0.0,0.0,80,0.00,,,0.00,weatherlink.com 1.10,2013-03-26 11:06:00,
2013-03-26 06:21:00,30.9,25.0,30.31,West,278,0.0,1.0,80,0.00,,,0.00,weatherlink.com 1.10,2013-03-26 11:21:00,
2013-03-26 06:37:00,31.0,25.0,30.31,NNW,337,0.0,1.0,79,0.00,,,0.00,weatherlink.com 1.10,2013-03-26 11:37:00,
2013-03-26 06:51:00,30.8,25.0,30.32,WNW,287,0.0,1.0,78,0.00,,,0.00,weatherlink.com 1.10,2013-03-26 11:51:00,
2013-03-26 07:06:00,30.7,25.0,30.33,WNW,303,0.0,2.0,79,0.00,,,0.00,weatherlink.com 1.10,2013-03-26 12:06:00,
2013-03-26 07:22:00,30.9,25.0,30.33,North,349,1.0,1.0,78,0.00,,,0.00,weatherlink.com 1.10,2013-03-26 12:22:00,
2013-03-26 07:37:00,31.6,25.0,30.34,WNW,290,0.0,2.0,76,0.00,,,0.00,weatherlink.com 1.10,2013-03-26 12:37:00,
2013-03-26 07:52:00,32.5,25.0,30.34,WNW,288,0.0,2.0,73,0.00,,,0.00,weatherlink.com 1.10,2013-03-26 12:52:00,
2013-03-26 08:07:00,33.6,25.0,30.35,WNW,286,1.0,3.0,71,0.00,,,0.00,weatherlink.com 1.10,2013-03-26 13:07:00,
2013-03-26 08:22:00,34.7,25.0,30.35,SSE,157,1.0,4.0,68,0.00,,,0.00,weatherlink.com 1.10,2013-03-26 13:22:00,
2013-03-26 08:37:00,35.7,25.0,30.36,WNW,297,1.0,5.0,66,0.00,,,0.00,weatherlink.com 1.10,2013-03-26 13:37:00,
2013-03-26 08:52:00,36.8,25.0,30.37,NNW,338,3.0,10.0,63,0.00,,,0.00,weatherlink.com 1.10,2013-03-26 13:52:00,
2013-03-26 09:07:00,37.7,25.0,30.37,West,269,1.0,8.0,60,0.00,,,0.00,weatherlink.com 1.10,2013-03-26 14:07:00,
2013-03-26 09:22:00,38.0,25.0,30.37,NW,314,3.0,9.0,59,0.00,,,0.00,weatherlink.com 1.10,2013-03-26 14:22:00,
2013-03-26 09:37:00,38.3,24.0,30.38,NNW,328,4.0,9.0,57,0.00,,,0.00,weatherlink.com 1.10,2013-03-26 14:37:00,
2013-03-26 09:52:00,39.5,24.0,30.37,NW,319,2.0,7.0,55,0.00,,,0.00,weatherlink.com 1.10,2013-03-26 14:52:00,
2013-03-26 10:07:00,40.4,23.0,30.37,ENE,73,3.0,7.0,51,0.00,,,0.00,weatherlink.com 1.10,2013-03-26 15:07:00,
2013-03-26 10:22:00,41.7,24.0,30.37,WNW,302,2.0,5.0,49,0.00,,,0.00,weatherlink.com 1.10,2013-03-26 15:22:00,
2013-03-26 10:37:00,42.2,24.0,30.37,WNW,293,7.0,10.0,48,0.00,,,0.00,weatherlink.com 1.10,2013-03-26 15:37:00,
2013-03-26 10:52:00,42.6,23.0,30.37,NNE,12,4.0,9.0,47,0.00,,,0.00,weatherlink.com 1.10,2013-03-26 15:52:00,
2013-03-26 11:07:00,43.0,23.0,30.37,WNW,299,4.0,9.0,46,0.00,,,0.00,weatherlink.com 1.10,2013-03-26 16:07:00,
2013-03-26 11:22:00,43.5,24.0,30.37,WNW,302,4.0,7.0,46,0.00,,,0.00,weatherlink.com 1.10,2013-03-26 16:22:00,
2013-03-26 11:37:00,44.5,24.0,30.37,NNE,20,1.0,5.0,44,0.00,,,0.00,weatherlink.com 1.10,2013-03-26 16:37:00,
2013-03-26 11:52:00,44.7,24.0,30.37,WNW,288,0.0,8.0,44,0.00,,,0.00,weatherlink.com 1.10,2013-03-26 16:52:00,
2013-03-26 12:07:00,45.4,24.0,30.37,WSW,247,6.0,9.0,43,0.00,,,0.00,weatherlink.com 1.10,2013-03-26 17:07:00,
2013-03-26 12:22:00,46.6,24.0,30.36,WNW,301,2.0,6.0,41,0.00,,,0.00,weatherlink.com 1.10,2013-03-26 17:22:00,
2013-03-26 12:37:00,46.8,24.0,30.36,NE,35,4.0,7.0,41,0.00,,,0.00,weatherlink.com 1.10,2013-03-26 17:37:00,
2013-03-26 12:52:00,47.7,25.0,30.35,WNW,298,6.0,9.0,41,0.00,,,0.00,weatherlink.com 1.10,2013-03-26 17:52:00,
2013-03-26 13:07:00,48.7,25.0,30.34,NNW,346,3.0,9.0,40,0.00,,,0.00,weatherlink.com 1.10,2013-03-26 18:07:00,
2013-03-26 13:22:00,48.8,25.0,30.34,South,187,2.0,8.0,39,0.00,,,0.00,weatherlink.com 1.10,2013-03-26 18:22:00,
2013-03-26 13:37:00,49.9,26.0,30.33,NNW,329,3.0,8.0,39,0.00,,,0.00,weatherlink.com 1.10,2013-03-26 18:37:00,
2013-03-26 13:52:00,50.6,24.0,30.33,NW,322,4.0,7.0,35,0.00,,,0.00,weatherlink.com 1.10,2013-03-26 18:52:00,
2013-03-26 14:07:00,50.3,25.0,30.32,West,277,1.0,9.0,37,0.00,,,0.00,weatherlink.com 1.10,2013-03-26 19:07:00,
2013-03-26 14:22:00,51.1,25.0,30.32,NNW,339,5.0,7.0,36,0.00,,,0.00,weatherlink.com 1.10,2013-03-26 19:22:00,
2013-03-26 14:37:00,50.9,25.0,30.31,West,276,3.0,10.0,36,0.00,,,0.00,weatherlink.com 1.10,2013-03-26 19:37:00,
2013-03-26 14:53:00,51.6,25.0,30.30,NW,319,2.0,7.0,36,0.00,,,0.00,weatherlink.com 1.10,2013-03-26 19:53:00,
2013-03-26 15:08:00,52.5,25.0,30.31,WNW,287,2.0,10.0,34,0.00,,,0.00,weatherlink.com 1.10,2013-03-26 20:08:00,
2013-03-26 15:23:00,52.2,26.0,30.30,North,1,1.0,8.0,36,0.00,,,0.00,weatherlink.com 1.10,2013-03-26 20:23:00,
2013-03-26 15:38:00,52.5,25.0,30.30,South,183,1.0,10.0,35,0.00,,,0.00,weatherlink.com 1.10,2013-03-26 20:38:00,
2013-03-26 15:53:00,52.1,26.0,30.29,NW,307,4.0,11.0,36,0.00,,,0.00,weatherlink.com 1.10,2013-03-26 20:53:00,
2013-03-26 16:08:00,52.5,26.0,30.30,WNW,284,2.0,12.0,36,0.00,,,0.00,weatherlink.com 1.10,2013-03-26 21:08:00,
2013-03-26 16:23:00,53.0,26.0,30.29,WSW,248,1.0,11.0,35,0.00,,,0.00,weatherlink.com 1.10,2013-03-26 21:23:00,
2013-03-26 16:38:00,52.6,26.0,30.29,WNW,296,2.0,7.0,36,0.00,,,0.00,weatherlink.com 1.10,2013-03-26 21:38:00,
2013-03-26 16:53:00,53.0,26.0,30.29,North,358,3.0,9.0,35,0.00,,,0.00,weatherlink.com 1.10,2013-03-26 21:53:00,
2013-03-26 17:08:00,52.5,25.0,30.29,ENE,57,3.0,7.0,35,0.00,,,0.00,weatherlink.com 1.10,2013-03-26 22:08:00,
2013-03-26 17:23:00,52.2,26.0,30.29,North,352,3.0,8.0,37,0.00,,,0.00,weatherlink.com 1.10,2013-03-26 22:23:00,
2013-03-26 17:38:00,51.7,25.0,30.29,NNW,347,7.0,8.0,36,0.00,,,0.00,weatherlink.com 1.10,2013-03-26 22:38:00,
2013-03-26 17:53:00,51.8,25.0,30.30,NNE,19,6.0,7.0,36,0.00,,,0.00,weatherlink.com 1.10,2013-03-26 22:53:00,
2013-03-26 18:08:00,51.3,26.0,30.30,NNW,328,3.0,8.0,37,0.00,,,0.00,weatherlink.com 1.10,2013-03-26 23:08:00,
2013-03-26 18:23:00,51.5,26.0,30.30,North,354,1.0,5.0,38,0.00,,,0.00,weatherlink.com 1.10,2013-03-26 23:23:00,
2013-03-26 18:38:00,50.2,26.0,30.30,North,9,4.0,8.0,39,0.00,,,0.00,weatherlink.com 1.10,2013-03-26 23:38:00,
2013-03-26 18:53:00,48.9,26.0,30.30,NW,308,0.0,6.0,41,0.00,,,0.00,weatherlink.com 1.10,2013-03-26 23:53:00,
2013-03-26 19:08:00,47.6,26.0,30.31,NNW,343,2.0,5.0,43,0.00,,,0.00,weatherlink.com 1.10,2013-03-27 00:08:00,
2013-03-26 19:23:00,46.6,27.0,30.31,NNW,347,1.0,4.0,46,0.00,,,0.00,weatherlink.com 1.10,2013-03-27 00:23:00,
2013-03-26 19:38:00,45.7,27.0,30.32,WNW,288,0.0,3.0,48,0.00,,,0.00,weatherlink.com 1.10,2013-03-27 00:38:00,
2013-03-26 19:53:00,44.9,27.0,30.33,West,278,0.0,3.0,50,0.00,,,0.00,weatherlink.com 1.10,2013-03-27 00:53:00,
2013-03-26 20:08:00,44.2,27.0,30.34,NNW,345,0.0,2.0,52,0.00,,,0.00,weatherlink.com 1.10,2013-03-27 01:08:00,
2013-03-26 20:23:00,43.4,28.0,30.34,NW,321,2.0,3.0,54,0.00,,,0.00,weatherlink.com 1.10,2013-03-27 01:23:00,
2013-03-26 20:38:00,42.8,28.0,30.34,WNW,297,0.0,3.0,56,0.00,,,0.00,weatherlink.com 1.10,2013-03-27 01:38:00,
2013-03-26 20:53:00,42.0,28.0,30.34,WNW,300,1.0,1.0,58,0.00,,,0.00,weatherlink.com 1.10,2013-03-27 01:53:00,
2013-03-26 21:08:00,41.4,28.0,30.35,NW,304,0.0,1.0,59,0.00,,,0.00,weatherlink.com 1.10,2013-03-27 02:08:00,
2013-03-26 21:23:00,40.7,28.0,30.35,NNW,343,0.0,1.0,62,0.00,,,0.00,weatherlink.com 1.10,2013-03-27 02:23:00,
2013-03-26 21:38:00,40.0,29.0,30.36,NNW,343,0.0,1.0,64,0.00,,,0.00,weatherlink.com 1.10,2013-03-27 02:38:00,
2013-03-26 21:55:00,39.4,28.0,30.36,East,80,0.0,1.0,65,0.00,,,0.00,weatherlink.com 1.10,2013-03-27 02:55:00,
2013-03-26 22:08:00,38.9,28.0,30.37,East,81,0.0,1.0,66,0.00,,,0.00,weatherlink.com 1.10,2013-03-27 03:08:00,
2013-03-26 22:23:00,38.6,28.0,30.37,ENE,76,0.0,1.0,66,0.00,,,0.00,weatherlink.com 1.10,2013-03-27 03:23:00,
2013-03-26 22:38:00,38.5,28.0,30.37,ENE,59,0.0,2.0,66,0.00,,,0.00,weatherlink.com 1.10,2013-03-27 03:38:00,
2013-03-26 22:53:00,38.2,28.0,30.37,NE,53,0.0,1.0,67,0.00,,,0.00,weatherlink.com 1.10,2013-03-27 03:53:00,
2013-03-26 23:08:00,37.7,28.0,30.37,ENE,60,0.0,1.0,69,0.00,,,0.00,weatherlink.com 1.10,2013-03-27 04:08:00,
2013-03-26 23:23:00,37.0,28.0,30.37,ENE,59,0.0,0.0,71,0.00,,,0.00,weatherlink.com 1.10,2013-03-27 04:23:00,
2013-03-26 23:38:00,36.4,29.0,30.37,ENE,59,0.0,0.0,73,0.00,,,0.00,weatherlink.com 1.10,2013-03-27 04:38:00,
2013-03-26 23:53:00,35.5,28.0,30.37,ENE,59,0.0,0.0,75,0.00,,,0.00,weatherlink.com 1.10,2013-03-27 04:53:00,